Falfurrias, TX

8:05 PM CST on November 16, 2019 (GMT -0600)
Falfurrias

Weather History for KBKS - August, 2019

Change the Weather History Date:

Thursday, August 22, 2019

  Actual Average (WUND) Record (WUND)
Temperature  
Mean Temperature 89 °F -  
Max Temperature 102 °F - - (-1)
Min Temperature 77 °F - - (-1)
Cooling Degree Days 24    
Growing Degree Days 39 (Base 50)    
Moisture  
Dew Point 73 °F    
Average Humidity 65    
Maximum Humidity 91    
Minimum Humidity 32    
Precipitation  
Precipitation 0.00 in - - ()
Sea Level Pressure  
Sea Level Pressure 29.88 in    
Wind  
Wind Speed 5 mph ()    
Max Wind Speed 16 mph    
Max Gust Speed 23 mph    
Visibility 9.9 miles    
Events      
Averages and records for this station are not official NWS values.
T = Trace of Precipitation, MM = Missing Value Source: Averaged Metar Reports

Daily Weather History Graph

Daily Weather History Graph

Search for Another Location

Airport or City:

Astronomy

Aug. 22, 2019 Rise Set
Actual Time 7:06 AM CDT 8:03 PM CDT
Civil Twilight 6:42 AM CDT 8:27 PM CDT
Nautical Twilight 6:14 AM CDT 8:55 PM CDT
Astronomical Twilight 5:45 AM CDT 9:24 PM CDT
Moon No Moon Rise 1:08 PM CDT (8/22)
Length of Visible Light 13h 44m
Length of Day
12h 56m
Waning Gibbous, 59% of the Moon is Illuminated
Aug 22
Waning Gibbous
Aug 23
Last Quarter
Aug 30
New
Sep 5
First Quarter
Sep 13
Full

Hourly Weather History & Observations

Time (CDT) Temp. Heat Index Dew Point Humidity Pressure Visibility Wind Dir Wind Speed Gust Speed Precip Events Conditions
12:15 AM 82.6 °F 89.9 °F 75.4 °F 79% 29.95 in 10.0 mi Calm Calm - N/A   Clear
12:35 AM 82.4 °F 89.5 °F 75.4 °F 79% 29.95 in 10.0 mi ESE 4.6 mph - N/A   Clear
12:55 AM 82.0 °F 89.1 °F 75.6 °F 81% 29.94 in 10.0 mi Calm Calm - N/A   Clear
1:15 AM 81.1 °F 87.2 °F 75.2 °F 82% 29.93 in 10.0 mi Calm Calm - N/A   Clear
1:35 AM 81.3 °F 87.8 °F 75.6 °F 83% 29.93 in 10.0 mi SE 3.5 mph - N/A   Clear
1:55 AM 81.5 °F 88.3 °F 75.9 °F 83% 29.93 in 10.0 mi SE 3.5 mph - N/A   Clear
2:15 AM 81.5 °F 88.5 °F 76.1 °F 84% 29.93 in 10.0 mi SSE 3.5 mph - N/A   Clear
2:35 AM 81.0 °F 87.3 °F 76.1 °F 85% 29.92 in 10.0 mi SSE 3.5 mph - N/A   Clear
2:55 AM 80.6 °F 86.4 °F 75.7 °F 85% 29.92 in 10.0 mi SSE 4.6 mph - N/A   Clear
3:15 AM 80.2 °F 85.7 °F 75.7 °F 86% 29.91 in 10.0 mi SSE 3.5 mph - N/A   Clear
3:35 AM 80.1 °F 85.4 °F 75.7 °F 87% 29.91 in 10.0 mi South 3.5 mph - N/A   Clear
3:55 AM 80.1 °F 85.4 °F 75.7 °F 87% 29.91 in 10.0 mi Calm Calm - N/A   Clear
4:15 AM 79.9 °F - 75.7 °F 87% 29.91 in 10.0 mi Calm Calm - N/A   Scattered Clouds
4:35 AM 79.5 °F - 75.7 °F 88% 29.91 in 10.0 mi Calm Calm - N/A   Clear
4:55 AM 78.8 °F - 74.7 °F 87% 29.91 in 10.0 mi Calm Calm - N/A   Clear
5:15 AM 78.3 °F - 74.3 °F 88% 29.91 in 10.0 mi Calm Calm - N/A   Clear
5:35 AM 78.1 °F - 74.3 °F 88% 29.91 in 10.0 mi Calm Calm - N/A   Clear
5:55 AM 77.5 °F - 74.3 °F 90% 29.91 in 10.0 mi Calm Calm - N/A   Clear
6:15 AM 77.2 °F - 73.8 °F 89% 29.91 in 10.0 mi ENE 3.5 mph - N/A   Clear
6:35 AM 77.2 °F - 73.9 °F 90% 29.91 in 10.0 mi Calm Calm - N/A   Scattered Clouds
6:55 AM 77.2 °F - 73.9 °F 90% 29.91 in 10.0 mi NE 3.5 mph - N/A   Scattered Clouds
7:15 AM 77.0 °F - 73.8 °F 90% 29.91 in 10.0 mi NNE 3.5 mph - N/A   Clear
7:35 AM 77.2 °F - 74.3 °F 91% 29.91 in 7.0 mi ENE 4.6 mph - N/A   Clear
7:55 AM 78.1 °F - 74.8 °F 90% 29.92 in 7.0 mi ENE 4.6 mph - N/A   Clear
8:15 AM 80.4 °F 86.3 °F 76.1 °F 87% 29.92 in 10.0 mi East 3.5 mph - N/A   Clear
8:35 AM 83.5 °F 92.2 °F 76.5 °F 79% 29.93 in 10.0 mi East 4.6 mph - N/A   Clear
8:55 AM 85.1 °F 94.9 °F 76.5 °F 75% 29.93 in 10.0 mi SE 3.5 mph - N/A   Clear
9:15 AM 86.4 °F 96.4 °F 76.1 °F 71% 29.93 in 10.0 mi ESE 6.9 mph - N/A   Clear
9:35 AM 88.0 °F 97.5 °F 74.8 °F 65% 29.93 in 10.0 mi SSE 10.4 mph - N/A   Scattered Clouds
9:55 AM 88.5 °F 97.8 °F 74.7 °F 63% 29.93 in 10.0 mi SSE 6.9 mph - N/A   Scattered Clouds
10:15 AM 90.5 °F 99.7 °F 73.8 °F 58% 29.92 in 10.0 mi SE 8.1 mph - N/A   Scattered Clouds
10:35 AM 91.4 °F 98.9 °F 72.0 °F 53% 29.91 in 10.0 mi SE 10.4 mph - N/A   Scattered Clouds
10:55 AM 91.4 °F 98.9 °F 72.3 °F 53% 29.91 in 10.0 mi ESE 9.2 mph - N/A   Scattered Clouds
11:15 AM 92.8 °F 99.7 °F 70.9 °F 49% 29.91 in 10.0 mi SE 5.8 mph - N/A   Scattered Clouds
11:35 AM 93.6 °F 99.0 °F 69.4 °F 45% 29.91 in 10.0 mi ESE 3.5 mph - N/A   Clear
11:55 AM 95.4 °F 102.0 °F 70.3 °F 44% 29.91 in 10.0 mi South 6.9 mph - N/A   Clear
12:15 PM 96.1 °F 101.6 °F 69.1 °F 41% 29.90 in 10.0 mi East 6.9 mph - N/A   Clear
12:35 PM 97.3 °F 102.9 °F 68.4 °F 39% 29.89 in 10.0 mi SSE 5.8 mph 9.2 mph N/A   Clear
12:55 PM 98.1 °F 103.0 °F 67.5 °F 37% 29.88 in 10.0 mi ESE 6.9 mph - N/A   Scattered Clouds
1:15 PM 97.3 °F 102.3 °F 67.5 °F 38% 29.87 in 10.0 mi Calm Calm - N/A   Scattered Clouds
1:35 PM 98.4 °F 103.1 °F 67.3 °F 36% 29.86 in 10.0 mi SE 5.8 mph - N/A   Scattered Clouds
1:55 PM 99.9 °F 105.2 °F 67.5 °F 35% 29.85 in 10.0 mi ESE 3.5 mph - N/A   Mostly Cloudy
2:15 PM 101.8 °F 107.0 °F 67.1 °F 32% 29.84 in 10.0 mi SE 6.9 mph - N/A   Mostly Cloudy
2:35 PM 98.1 °F 104.4 °F 68.9 °F 39% 29.83 in 10.0 mi East 11.5 mph 19.6 mph N/A   Mostly Cloudy
2:55 PM 97.7 °F 105.0 °F 70.7 °F 41% 29.83 in 10.0 mi ENE 9.2 mph - N/A   Overcast
3:15 PM 92.7 °F 103.7 °F 75.0 °F 56% 29.83 in 10.0 mi ESE 11.5 mph 23.0 mph N/A   Overcast
3:35 PM 97.2 °F 107.4 °F 73.2 °F 46% 29.82 in 10.0 mi East 12.7 mph 20.7 mph N/A   Mostly Cloudy
4:15 PM 97.9 °F 107.6 °F 72.5 °F 44% 29.80 in 10.0 mi SE 13.8 mph 23.0 mph N/A   Scattered Clouds
4:35 PM 98.2 °F 106.9 °F 71.6 °F 42% 29.80 in 10.0 mi East 13.8 mph 19.6 mph N/A   Scattered Clouds
4:55 PM 98.1 °F 107.2 °F 72.3 °F 43% 29.80 in 10.0 mi East 12.7 mph 21.9 mph N/A   Clear
5:15 PM 98.1 °F 107.2 °F 71.8 °F 43% 29.80 in 10.0 mi East 16.1 mph 19.6 mph N/A   Clear
5:35 PM 96.8 °F 103.8 °F 70.5 °F 42% 29.80 in 10.0 mi East 16.1 mph 19.6 mph N/A   Clear
5:55 PM 96.3 °F 102.6 °F 69.8 °F 42% 29.80 in 10.0 mi East 12.7 mph 18.4 mph N/A   Clear
6:15 PM 95.7 °F 102.8 °F 70.5 °F 44% 29.80 in 10.0 mi East 11.5 mph 21.9 mph N/A   Clear
6:35 PM 95.0 °F 101.3 °F 70.2 °F 44% 29.80 in 10.0 mi ESE 15.0 mph 21.9 mph N/A   Clear
6:55 PM 94.1 °F 100.6 °F 70.7 °F 46% 29.80 in 10.0 mi ESE 15.0 mph 19.6 mph N/A   Clear
7:15 PM 92.5 °F 99.0 °F 70.7 °F 49% 29.81 in 10.0 mi ESE 13.8 mph 19.6 mph N/A   Clear
7:35 PM 91.4 °F 97.8 °F 70.7 °F 51% 29.82 in 10.0 mi ESE 15.0 mph 23.0 mph N/A   Clear
7:55 PM 90.0 °F 97.4 °F 72.5 °F 56% 29.83 in 10.0 mi East 15.0 mph 19.6 mph N/A   Clear
8:15 PM 88.5 °F 97.3 °F 74.1 °F 62% 29.83 in 10.0 mi ESE 12.7 mph 18.4 mph N/A   Clear
8:35 PM 87.4 °F 96.7 °F 74.8 °F 66% 29.84 in 10.0 mi ESE 10.4 mph 17.3 mph N/A   Clear
8:55 PM 86.9 °F 96.4 °F 75.2 °F 68% 29.85 in 10.0 mi East 11.5 mph - N/A   Clear
9:15 PM 86.2 °F 95.1 °F 74.8 °F 69% 29.85 in 10.0 mi ESE 10.4 mph - N/A   Clear
9:35 PM 86.0 °F 94.6 °F 74.8 °F 69% 29.87 in 10.0 mi ESE 8.1 mph - N/A   Clear
9:55 PM 85.3 °F 93.4 °F 74.7 °F 70% 29.88 in 10.0 mi ESE 5.8 mph - N/A   Clear
10:15 PM 84.7 °F 92.5 °F 74.5 °F 71% 29.88 in 10.0 mi ESE 5.8 mph - N/A   Clear
10:35 PM 84.4 °F 92.0 °F 74.5 °F 72% 29.88 in 10.0 mi ESE 4.6 mph - N/A   Clear
10:55 PM 84.2 °F 91.6 °F 74.3 °F 72% 29.88 in 10.0 mi ESE 4.6 mph - N/A   Clear
11:15 PM 83.5 °F 90.6 °F 74.3 °F 74% 29.88 in 10.0 mi ESE 4.6 mph - N/A   Clear
11:35 PM 82.8 °F 89.2 °F 74.3 °F 75% 29.89 in 10.0 mi ESE 3.5 mph - N/A   Clear
11:55 PM 82.8 °F 89.5 °F 74.7 °F 76% 29.88 in 10.0 mi ESE 3.5 mph - N/A   Clear